This is the latest recevied weather packets stored in our database for station/object KR4KUV. If no packets are shown the sender has not sent any weather packets the latest 10 day(s).
| Time | Temp. | Humidity | Pressure | Rain* | Wind** | Luminosity | Snow |
|---|---|---|---|---|---|---|---|
| 1787610446 | 30° C | 53% | 1016.6 hPa | 0 mm | - | 138 W/m² | - |
| 1787610146 | 29.44° C | 54% | 1016.7 hPa | 0 mm | - | 152 W/m² | - |
| 1787609845 | 30° C | 53% | 1016.7 hPa | 0 mm | - | 169 W/m² | - |
| 1787609540 | 30° C | 51% | 1016.5 hPa | 0 mm | - | 179 W/m² | - |
| 1787609234 | 30° C | 56% | 1016.6 hPa | 0 mm | - | 181 W/m² | - |
| 1787608928 | 30° C | 52% | 1016.7 hPa | 0 mm | - | 216 W/m² | - |
| 1787608623 | 30.56° C | 56% | 1016.5 hPa | 0 mm | - | 231 W/m² | - |
| 1787608318 | 30.56° C | 51% | 1016.5 hPa | 0 mm | - | 243 W/m² | - |
| 1787608015 | 31.11° C | 53% | 1016.5 hPa | 0 mm | - | 259 W/m² | - |
| 1787607711 | 31.11° C | 52% | 1016.4 hPa | 0 mm | - | 285 W/m² | - |
| 1787607408 | 31.11° C | 47% | 1016.4 hPa | 0 mm | - | 295 W/m² | - |
| 1787607099 | 31.67° C | 51% | 1016.5 hPa | 0 mm | - | 313 W/m² | - |
| 1787606798 | 30.56° C | 53% | 1016.3 hPa | 0 mm | - | 329 W/m² | - |
| 1787606492 | 30.56° C | 47% | 1016.4 hPa | 0 mm | - | 348 W/m² | - |
| 1787606190 | 31.11° C | 48% | 1016.5 hPa | 0 mm | - | 370 W/m² | - |
| 1787605886 | 31.11° C | 47% | 1016.5 hPa | 0 mm | - | 385 W/m² | - |
| 1787605584 | 31.11° C | 48% | 1016.4 hPa | 0 mm | - | 402 W/m² | - |
| 1787605281 | 31.67° C | 48% | 1016.3 hPa | 0 mm | - | 417 W/m² | - |
| 1787604980 | 31.67° C | 43% | 1016.6 hPa | 0 mm | - | 434 W/m² | - |
| 1787604679 | 31.67° C | 43% | 1016.5 hPa | 0 mm | - | 446 W/m² | - |
| 1787604374 | 31.67° C | 44% | 1016.7 hPa | 0 mm | - | 469 W/m² | - |
| 1787604068 | 31.11° C | 45% | 1016.7 hPa | 0 mm | - | 476 W/m² | - |
| 1787603763 | 31.67° C | 44% | 1016.6 hPa | 0 mm | - | 487 W/m² | - |
| 1787603458 | 31.67° C | 44% | 1016.7 hPa | 0 mm | - | 506 W/m² | - |
| 1787603154 | 31.67° C | 43% | 1016.8 hPa | 0 mm | - | 523 W/m² | - |
* Rain latest hour (hover to see other rain measurements)
** Current wind speed in m/s (hover to see current wind gust speed)